Temperature
4 5 5 5 6 6 7 7 7 8 8 7 7 7 7 7 7 7 8 8 8 8 8 8 8 8 8 9 9 9 10 10 10 10 10 10 10 11 11 11 11 11 11 11
5 4 4 5 5 5 6 6 6 7 7 7 7 7 7 7 7 7 7 7 7 7 7 7 7 8 8 8 9 9 9 9 9 9 10 10 10 10 10 10 10 10 11 11
3 3 4 4 4 4 5 5 6 6 6 6 6 6 7 6 6 5 6 6 6 6 6 6 7 7 7 8 8 8 8 9 9 9 9 9 9 10 10 10 10 10 10 10
3 3 3 3 3 4 4 5 5 5 5 6 6 6 7 6 6 6 5 5 5 5 5 5 6 6 7 7 7 8 8 8 8 9 9 9 9 9 9 9 10 10 10 10
2 2 2 2 3 3 4 4 4 5 5 5 5 5 6 6 5 5 5 5 4 4 4 4 5 6 6 6 7 7 8 8 8 8 8 8 9 9 9 9 9 9 9 10
2 2 2 2 3 3 3 4 4 4 4 4 5 5 5 5 5 5 4 3 3 3 3 3 4 5 5 6 6 7 7 7 8 8 8 8 8 8 9 9 9 9 9 9
2 2 2 2 2 3 3 3 4 4 4 4 5 4 4 3 3 3 3 2 1 1 2 2 3 4 4 5 6 6 7 7 7 7 7 8 8 8 8 8 9 9 9 9
1 1 1 1 1 1 2 2 3 3 4 4 4 4 3 2 1 1 1 0 0 0 1 1 2 3 4 4 5 5 6 6 7 7 7 7 7 8 8 8 8 8 8 9
-0 0 1 0 1 1 1 1 1 2 3 3 3 3 2 1 1 0 -0 -1 -1 -1 -0 0 1 2 3 3 4 5 5 6 6 7 7 7 7 7 7 8 8 8 8 8
-1 -1 0 0 1 1 1 1 1 1 2 3 3 2 2 0 -0 -0 -1 -1 -1 -1 -1 -1 0 1 2 3 3 4 5 5 6 6 6 7 7 7 7 7 7 7 8 8
-1 -2 -0 -0 -1 -1 -0 -0 -0 0 1 2 2 2 -1 -1 -1 -1 -2 -2 -2 -2 -2 -2 -1 0 1 2 3 3 4 4 5 6 6 6 6 6 7 7 7 7 7 7
-2 -2 -1 -1 -1 -1 -1 -1 -1 -0 -0 0 1 0 -2 -2 -2 -2 -2 -3 -3 -3 -3 -2 -2 -1 0 1 2 3 3 4 4 5 5 5 6 6 6 6 6 7 7 7
-2 -2 -1 -0 -1 -2 -2 -2 -2 -2 -1 -0 0 -0 -2 -2 -3 -3 -3 -3 -4 -4 -3 -3 -2 -2 -1 -0 1 2 2 3 3 4 4 5 5 5 6 6 6 6 6 6
-2 -3 -3 -2 -2 -3 -3 -3 -3 -2 -1 -1 -1 -2 -2 -3 -3 -4 -4 -4 -4 -4 -4 -4 -3 -3 -2 -1 -0 0 1 2 2 3 4 4 5 5 5 5 6 6 6 6
-3 -3 -4 -3 -3 -3 -4 -4 -4 -4 -3 -2 -2 -3 -3 -3 -4 -4 -4 -5 -5 -5 -5 -4 -4 -3 -3 -2 -1 -1 0 1 2 2 3 3 4 4 5 5 5 5 5 6
-4 -4 -4 -4 -3 -3 -4 -4 -4 -4 -4 -4 -4 -4 -4 -4 -5 -5 -5 -5 -6 -5 -5 -5 -4 -4 -3 -3 -2 -1 -0 0 1 1 2 2 3 4 4 4 4 5 5 5
-4 -4 -4 -3 -4 -4 -4 -4 -5 -4 -5 -4 -4 -4 -4 -5 -5 -5 -6 -6 -6 -6 -6 -5 -5 -4 -4 -3 -3 -2 -1 -0 0 1 1 2 2 3 3 3 4 4 4 4
-5 -5 -4 -3 -4 -4 -3 -5 -5 -5 -5 -5 -5 -5 -5 -6 -6 -6 -6 -6 -7 -7 -6 -6 -5 -5 -4 -3 -3 -2 -2 -1 -1 -0 0 1 1 2 2 2 3 3 3 3
-5 -5 -4 -4 -4 -3 -4 -5 -6 -6 -5 -5 -6 -6 -6 -7 -6 -5 -6 -7 -7 -7 -7 -6 -6 -5 -4 -4 -3 -3 -2 -2 -1 -1 -0 0 1 1 1 1 2 2 2 2
-6 -6 -5 -5 -4 -4 -4 -6 -7 -6 -5 -6 -7 -7 -7 -7 -5 -5 -7 -7 -7 -7 -7 -6 -5 -5 -4 -4 -4 -3 -3 -2 -2 -1 -1 -1 -0 -0 0 1 1 1 1 2
-6 -6 -6 -5 -5 -4 -5 -7 -7 -5 -5 -7 -8 -8 -8 -8 -7 -8 -8 -8 -7 -7 -7 -6 -6 -5 -5 -4 -4 -4 -3 -3 -2 -2 -1 -1 -1 -1 -1 -0 0 0 1 1
-6 -5 -6 -6 -5 -5 -7 -7 -6 -6 -7 -8 -8 -8 -8 -8 -8 -8 -8 -8 -8 -7 -7 -6 -6 -6 -5 -5 -5 -4 -4 -4 -3 -2 -2 -2 -1 -1 -1 -1 -1 -0 -0 -0
-7 -6 -6 -6 -5 -6 -8 -7 -8 -8 -8 -8 -8 -8 -9 -9 -9 -9 -9 -8 -8 -8 -7 -7 -7 -6 -6 -5 -5 -5 -4 -4 -4 -3 -3 -2 -2 -2 -2 -1 -1 -1 -1 -1
-7 -9 -8 -8 -7 -8 -8 -8 -8 -8 -9 -9 -9 -9 -9 -9 -9 -9 -9 -8 -8 -8 -8 -7 -7 -7 -6 -6 -6 -5 -5 -5 -4 -4 -3 -3 -3 -2 -2 -2 -2 -2 -2 -1
-7 -9 -8 -8 -7 -8 -8 -8 -8 -8 -9 -9 -9 -9 -9 -9 -9 -9 -9 -9 -8 -8 -8 -8 -8 -7 -7 -7 -6 -6 -5 -5 -5 -4 -4 -4 -3 -3 -3 -3 -3 -2 -2 -2
-9 -9 -8 -6 -7 -8 -8 -8 -8 -9 -9 -9 -9 -9 -9 -9 -9 -9 -9 -9 -9 -9 -8 -8 -8 -8 -7 -7 -7 -6 -6 -6 -5 -5 -5 -4 -4 -4 -4 -4 -3 -3 -3 -3
Wind_Speed
2 1 1 4 6 8 7 8 10 9 5 7 10 9 7 5 6 6 6 6 6 6 5 3 3 4 5 5 6 6 6 6 5 5 5 5 5 4 4 5 6 7 7 8
1 1 4 4 4 5 7 9 10 7 4 7 9 9 8 7 6 6 6 6 6 6 4 3 3 3 5 6 6 6 6 6 6 5 5 5 5 5 4 4 6 7 7 8
1 3 4 3 3 5 7 9 10 8 6 6 7 9 8 7 6 5 6 6 6 6 5 4 4 4 4 6 7 6 7 7 6 6 5 5 4 4 4 4 5 6 8 8
2 5 5 4 4 5 8 8 10 10 8 7 8 8 8 7 6 5 6 5 5 4 5 4 3 4 4 5 5 6 7 7 7 7 7 8 7 6 5 6 5 6 7 8
3 5 5 5 6 6 7 9 9 10 10 8 9 8 6 5 7 7 6 5 5 4 4 4 3 4 4 4 4 5 7 7 7 7 8 8 7 6 5 6 6 6 6 7
3 3 4 5 7 5 7 6 6 7 7 9 11 10 6 4 7 6 5 5 5 4 4 4 3 3 2 2 3 4 6 7 7 8 8 8 8 8 7 7 6 5 4 5
5 3 4 5 5 4 4 2 2 4 6 7 6 7 4 2 3 4 5 6 6 5 4 4 4 3 2 1 2 3 5 5 7 7 8 8 8 8 8 8 7 6 5 5
6 5 6 6 4 5 4 4 3 5 6 5 3 6 1 4 5 6 6 6 7 7 5 4 4 4 3 2 2 3 4 5 5 6 7 7 8 7 6 7 7 7 6 6
5 5 6 7 6 4 3 2 4 4 5 6 4 3 1 5 7 9 9 9 8 8 7 5 5 5 3 2 3 3 4 4 4 5 6 6 7 7 7 7 7 6 6 5
4 6 6 5 3 3 3 3 2 3 4 5 4 4 2 5 8 10 10 10 10 9 8 7 5 5 4 3 2 3 3 4 4 4 4 4 6 7 6 6 7 7 7 6
3 4 5 4 4 6 4 2 2 3 3 4 5 1 4 5 7 8 9 9 9 8 8 7 6 5 5 4 2 2 2 2 3 3 4 5 5 6 6 6 7 7 6 7
3 3 4 4 3 4 3 3 3 3 3 3 4 1 4 7 8 8 9 9 9 8 7 6 6 6 5 4 3 2 2 2 3 3 4 5 5 5 6 6 6 7 7 7
2 2 4 2 0 3 3 4 3 3 3 4 4 2 4 8 10 10 10 10 9 9 8 7 6 6 6 5 3 3 2 2 2 2 3 4 4 5 5 5 5 6 6 6
2 1 2 4 6 5 5 6 4 2 3 4 5 6 8 10 12 11 11 10 10 9 8 8 7 7 6 5 5 4 3 2 2 2 2 3 4 5 5 5 5 5 5 6
2 2 2 5 6 5 5 6 5 2 3 4 6 7 9 10 11 11 10 10 10 10 10 9 8 8 7 6 6 5 4 3 2 2 2 3 3 3 4 4 4 4 4 5
2 2 3 5 4 4 4 6 5 4 4 5 7 7 8 9 9 10 10 10 10 11 11 10 9 9 8 7 7 6 5 4 2 2 2 2 2 2 3 3 3 4 4 4
2 2 3 4 5 4 3 4 3 3 4 5 6 7 9 10 10 11 11 10 10 11 11 10 9 9 8 7 6 6 5 4 3 2 2 2 1 2 2 2 3 4 4 4
2 2 2 3 3 3 1 2 3 4 5 5 5 7 9 9 11 10 8 8 11 12 12 11 9 9 8 7 7 6 5 3 2 2 2 2 1 2 2 2 3 4 3 4
2 2 1 2 3 4 2 1 3 4 5 4 6 9 9 9 8 6 6 9 11 12 12 10 9 8 8 7 7 6 5 3 2 2 3 3 2 2 2 3 3 3 3 3
1 0 2 2 3 3 2 3 5 3 3 3 6 9 10 9 6 7 10 13 13 13 11 10 9 8 7 7 7 5 4 3 3 4 4 3 3 3 3 3 3 3 3 3
1 0 1 3 3 4 2 4 2 2 4 6 6 7 7 6 6 10 13 13 12 12 12 11 9 7 7 7 6 5 5 5 5 5 4 3 2 2 2 2 2 3 3 3
2 2 2 2 3 3 1 0 1 3 5 6 7 7 7 8 10 11 11 12 12 11 11 10 8 7 7 7 6 6 6 6 5 4 3 3 2 2 1 2 2 2 3 4
3 3 2 4 3 2 1 2 3 3 5 6 6 7 8 9 10 11 11 11 10 10 10 8 7 7 7 7 6 6 6 6 5 4 4 3 2 1 1 1 2 2 3 3
2 2 3 4 6 6 5 5 5 5 5 7 7 8 8 9 10 10 10 9 9 9 8 7 7 7 8 8 7 6 6 6 4 4 3 3 2 2 1 0 1 2 2 3
3 3 3 5 6 6 5 6 6 6 6 7 7 7 7 8 9 9 9 9 8 8 7 6 6 7 8 8 7 7 6 5 4 3 3 3 2 2 1 1 1 1 1 2
4 5 5 5 4 4 5 4 5 6 7 7 7 8 7 6 8 8 8 7 7 7 6 6 7 7 8 8 8 7 6 5 4 3 3 2 2 1 1 1 2 3 1 2
Wind_Direction
38 66 273 260 241 250 245 242 249 253 240 231 234 249 262 268 259 257 255 252 249 250 248 232 221 208 194 182 176 173 167 163 163 164 169 171 171 166 164 161 163 168 169 170
67 332 289 283 257 255 248 246 251 262 250 236 240 254 257 256 252 256 260 258 258 258 253 234 221 206 199 191 184 177 177 173 172 175 175 178 173 172 169 160 168 170 171 170
14 336 323 303 290 263 258 249 250 257 274 245 246 252 243 250 251 265 274 277 267 256 252 243 227 214 206 199 194 188 182 177 176 171 163 154 156 157 165 174 178 179 177 174
342 330 340 323 306 288 262 267 262 251 249 246 235 252 239 243 244 259 271 281 285 283 271 260 247 228 215 210 197 193 184 178 178 174 172 169 173 176 184 182 181 177 176 176
342 340 333 314 298 287 279 283 264 248 243 254 240 246 250 226 242 258 273 283 289 291 288 279 266 254 228 213 196 192 185 180 177 178 179 179 178 179 176 173 173 172 173 178
337 337 333 306 297 285 292 277 254 231 230 242 238 232 252 233 247 263 287 312 322 322 316 308 309 305 268 225 203 190 185 182 180 183 185 185 182 177 171 173 174 173 172 177
341 0 355 334 318 320 326 284 229 214 220 238 228 226 252 313 319 304 309 324 334 336 333 333 335 326 306 251 214 199 184 183 185 187 188 191 190 186 182 182 182 178 176 181
340 333 0 352 334 306 290 253 254 244 241 254 232 226 210 16 1 354 350 349 351 348 341 336 339 326 312 276 238 211 195 190 186 188 192 193 194 192 192 190 187 188 189 189
333 317 340 344 336 328 301 267 283 274 260 250 230 233 256 4 6 5 4 359 354 349 344 334 332 336 328 304 258 231 205 198 193 193 194 194 196 196 195 192 191 191 191 186
307 296 320 335 334 12 332 306 281 259 249 245 241 240 292 349 354 357 359 354 348 347 346 340 333 339 335 322 280 244 215 202 200 199 199 201 202 201 197 192 192 193 191 185
294 289 311 335 359 338 342 325 299 274 277 254 249 239 23 355 346 348 349 347 344 345 343 340 339 338 337 335 329 267 233 218 210 206 206 203 202 201 196 193 196 196 193 188
325 293 292 298 331 338 340 323 284 275 280 272 264 296 33 360 350 348 345 347 344 344 345 344 346 347 342 342 341 323 285 244 230 222 218 207 201 199 196 196 198 198 195 194
330 297 304 300 251 14 360 355 331 286 275 272 266 290 6 355 350 351 349 348 347 346 348 350 352 352 348 344 340 326 310 291 265 234 222 211 200 199 199 199 198 197 195 194
339 332 286 300 316 328 326 336 338 307 271 286 284 297 324 343 344 344 346 346 347 350 350 352 351 348 346 344 344 335 324 309 291 255 229 220 209 207 206 202 198 197 194 193
337 273 265 281 300 316 324 326 335 314 286 280 294 302 321 332 332 331 337 343 348 352 351 349 347 344 340 340 340 336 329 325 312 280 249 241 228 210 202 198 196 195 194 195
338 278 285 289 291 317 331 336 325 311 304 292 298 300 327 328 331 335 338 342 345 345 344 341 341 340 337 335 331 329 326 322 316 293 271 265 248 214 201 196 193 192 190 193
297 274 279 286 315 296 299 317 306 303 311 297 293 310 330 331 333 329 329 334 337 337 335 334 333 334 330 327 322 321 319 315 306 294 287 276 256 235 221 201 194 195 190 186
257 257 256 291 314 275 28 51 336 302 308 311 299 315 325 323 321 321 328 337 337 336 333 331 329 329 327 327 327 323 321 316 306 303 304 289 274 261 245 217 203 200 194 193
244 238 245 268 282 279 280 326 323 298 305 321 310 315 323 325 323 329 345 341 332 328 326 323 324 325 327 332 332 328 327 326 316 308 307 304 279 257 251 239 223 204 190 192
58 27 231 248 270 272 330 341 325 279 287 345 329 322 327 333 324 327 338 332 328 328 328 326 327 331 334 336 335 332 330 333 324 313 304 294 278 252 243 242 230 212 191 184
315 280 243 252 254 272 332 328 299 257 320 337 324 321 323 316 297 308 318 321 323 324 326 327 330 335 337 337 337 336 336 334 324 317 312 308 295 271 253 246 228 198 181 172
238 232 231 230 244 272 22 54 225 299 325 317 316 316 312 304 304 310 316 319 323 326 328 331 335 338 339 343 342 336 336 332 331 328 328 332 327 308 270 234 207 187 176 171
227 232 243 222 247 329 201 245 285 308 302 308 311 310 308 304 306 312 314 317 321 324 327 334 338 337 341 345 343 334 331 335 339 344 345 346 342 323 280 209 182 178 177 172
242 234 229 255 266 275 270 271 289 291 291 299 302 304 304 299 304 309 313 316 320 323 327 334 339 340 341 344 345 338 334 338 343 346 346 350 355 353 358 337 186 178 178 175
249 197 226 256 277 293 273 265 280 291 298 302 305 305 301 298 301 306 309 312 316 320 326 333 337 338 338 341 343 343 342 343 345 346 351 355 359 0 19 25 18 205 201 196
211 204 213 247 254 251 281 288 288 292 297 299 302 305 305 300 298 302 303 308 314 321 329 334 337 337 337 340 341 343 344 346 347 349 350 352 354 350 6 61 55 47 68 63
Height
1498 1497 1495 1494 1494 1492 1490 1489 1487 1488 1491 1492 1491 1492 1493 1494 1494 1492 1492 1492 1493 1493 1495 1496 1496 1498 1500 1502 1504 1506 1509 1511 1514 1517 1519 1522 1525 1527 1530 1533 1536 1538 1540 1543
1498 1498 1498 1497 1496 1494 1491 1489 1488 1489 1491 1491 1490 1490 1491 1491 1492 1492 1491 1491 1491 1491 1492 1493 1494 1495 1497 1499 1501 1503 1506 1509 1512 1514 1517 1520 1522 1525 1528 1531 1533 1536 1538 1541
1500 1502 1500 1498 1496 1494 1492 1490 1488 1490 1490 1490 1489 1485 1486 1488 1490 1490 1490 1490 1490 1490 1490 1490 1492 1493 1494 1496 1498 1501 1504 1506 1509 1512 1515 1517 1520 1523 1525 1528 1531 1533 1536 1538
1503 1503 1501 1498 1496 1495 1491 1491 1490 1489 1488 1485 1487 1478 1479 1483 1485 1487 1488 1488 1488 1488 1488 1488 1489 1490 1492 1493 1496 1499 1501 1503 1507 1510 1512 1514 1516 1519 1521 1525 1528 1531 1533 1536
1505 1505 1502 1500 1499 1497 1494 1492 1490 1487 1486 1485 1484 1481 1475 1481 1482 1484 1486 1486 1486 1486 1486 1486 1487 1488 1489 1492 1494 1496 1499 1501 1504 1506 1509 1512 1515 1517 1520 1522 1525 1528 1530 1533
1507 1507 1506 1503 1500 1498 1496 1491 1487 1485 1484 1484 1480 1479 1474 1479 1481 1483 1485 1485 1485 1484 1484 1484 1485 1486 1487 1489 1491 1493 1496 1498 1501 1504 1507 1510 1512 1514 1517 1520 1522 1525 1527 1530
1506 1505 1506 1505 1500 1497 1495 1491 1483 1480 1478 1474 1476 1478 1480 1484 1486 1486 1486 1485 1484 1483 1482 1482 1482 1483 1484 1485 1487 1490 1492 1495 1498 1501 1504 1506 1509 1512 1515 1517 1520 1522 1524 1527
1509 1505 1507 1507 1505 1501 1497 1495 1488 1481 1473 1471 1478 1477 1482 1489 1489 1488 1487 1486 1484 1482 1481 1481 1481 1481 1482 1483 1485 1487 1489 1492 1495 1498 1501 1504 1507 1509 1512 1514 1517 1519 1522 1524
1517 1510 1510 1509 1507 1504 1499 1496 1497 1491 1482 1479 1476 1479 1486 1489 1489 1488 1487 1485 1484 1482 1480 1480 1479 1479 1480 1481 1482 1484 1486 1489 1492 1495 1498 1501 1504 1506 1509 1511 1514 1517 1519 1522
1524 1518 1510 1510 1508 1506 1505 1501 1497 1492 1482 1474 1474 1479 1483 1490 1490 1490 1488 1487 1485 1482 1480 1479 1478 1477 1478 1479 1480 1482 1484 1486 1489 1491 1494 1497 1500 1503 1505 1508 1510 1513 1516 1518
1525 1521 1512 1509 1509 1507 1506 1505 1502 1496 1490 1480 1476 1483 1496 1497 1495 1493 1491 1488 1486 1483 1480 1478 1477 1476 1476 1477 1478 1479 1481 1483 1486 1488 1491 1494 1496 1499 1502 1504 1507 1510 1512 1515
1525 1521 1514 1511 1512 1512 1510 1508 1505 1499 1495 1490 1483 1494 1500 1499 1497 1495 1492 1489 1486 1483 1481 1478 1476 1475 1475 1475 1475 1476 1478 1480 1482 1485 1487 1489 1492 1495 1498 1500 1503 1506 1509 1511
1525 1524 1513 1506 1511 1514 1513 1512 1510 1506 1500 1494 1489 1496 1499 1499 1497 1495 1492 1489 1486 1483 1480 1478 1476 1474 1473 1473 1473 1474 1475 1477 1479 1481 1483 1486 1488 1491 1494 1497 1499 1502 1504 1507
1526 1525 1522 1516 1514 1516 1515 1514 1511 1507 1501 1498 1497 1498 1499 1499 1497 1495 1492 1489 1486 1483 1480 1477 1475 1473 1472 1472 1472 1472 1473 1475 1476 1478 1480 1482 1484 1487 1490 1493 1495 1498 1500 1503
1528 1525 1524 1522 1520 1518 1517 1515 1513 1512 1508 1504 1502 1502 1501 1501 1500 1497 1494 1490 1486 1483 1480 1477 1475 1473 1472 1471 1470 1470 1471 1472 1473 1475 1476 1478 1481 1483 1486 1488 1491 1493 1496 1498
1529 1526 1524 1521 1518 1517 1516 1515 1514 1513 1512 1509 1506 1504 1504 1503 1500 1496 1493 1490 1487 1483 1480 1477 1475 1473 1471 1470 1469 1469 1469 1470 1471 1472 1474 1475 1477 1479 1482 1484 1487 1489 1491 1494
1528 1527 1522 1515 1517 1515 1512 1516 1516 1514 1513 1511 1506 1506 1505 1501 1499 1496 1493 1490 1487 1484 1480 1477 1475 1472 1471 1469 1468 1467 1467 1468 1469 1470 1471 1472 1474 1476 1478 1480 1482 1484 1487 1489
1530 1527 1523 1517 1517 1515 1515 1519 1518 1515 1513 1512 1509 1508 1506 1503 1499 1496 1493 1490 1487 1483 1480 1476 1474 1471 1470 1468 1467 1466 1466 1466 1467 1467 1468 1469 1470 1472 1474 1476 1478 1481 1483 1485
1529 1527 1522 1519 1515 1511 1515 1518 1519 1517 1512 1511 1510 1507 1505 1502 1498 1494 1492 1490 1487 1483 1479 1476 1473 1471 1468 1467 1466 1465 1464 1464 1465 1465 1466 1467 1468 1469 1471 1473 1475 1477 1479 1481
1530 1529 1524 1522 1516 1512 1513 1518 1518 1518 1510 1510 1510 1507 1505 1502 1497 1494 1492 1488 1485 1481 1478 1475 1472 1469 1467 1466 1464 1464 1463 1463 1462 1463 1464 1465 1466 1467 1468 1470 1472 1474 1476 1478
1529 1528 1527 1522 1518 1512 1517 1518 1517 1514 1510 1511 1509 1507 1505 1503 1501 1497 1492 1487 1484 1480 1477 1474 1471 1468 1466 1464 1463 1462 1461 1461 1461 1461 1462 1463 1464 1465 1466 1467 1469 1471 1472 1474
1527 1525 1526 1524 1519 1516 1518 1517 1516 1514 1512 1510 1508 1506 1504 1501 1497 1494 1490 1486 1483 1479 1475 1472 1469 1467 1465 1463 1462 1460 1460 1459 1459 1459 1460 1461 1462 1463 1464 1465 1466 1468 1469 1471
1528 1526 1523 1523 1519 1518 1517 1515 1515 1513 1511 1509 1507 1504 1502 1498 1495 1491 1488 1485 1481 1478 1474 1472 1469 1466 1464 1463 1461 1459 1459 1458 1458 1457 1458 1459 1460 1461 1462 1462 1463 1465 1466 1467
1527 1527 1526 1522 1517 1516 1515 1514 1512 1511 1509 1507 1504 1502 1499 1496 1492 1489 1486 1482 1479 1476 1473 1471 1468 1466 1463 1462 1460 1459 1458 1457 1457 1456 1456 1457 1457 1458 1459 1460 1461 1462 1463 1464
1523 1525 1523 1520 1516 1514 1512 1511 1510 1508 1506 1504 1501 1499 1496 1493 1490 1487 1484 1481 1478 1475 1473 1470 1468 1465 1463 1461 1460 1458 1457 1456 1456 1455 1455 1455 1456 1456 1457 1458 1459 1460 1461 1462
1520 1520 1518 1513 1512 1512 1510 1508 1507 1505 1503 1501 1498 1495 1493 1490 1487 1485 1482 1479 1477 1474 1472 1469 1467 1465 1463 1461 1459 1458 1457 1456 1455 1454 1454 1454 1454 1455 1455 1456 1457 1458 1459 1460